Regional Weather Roundup
Issued by NWS

Home | Current Version | Previous Version | Text Only | Print | Product List | Glossary Off
Versions: 1 2 3 4 5 6 7 8 9 10 11 12 13 14 15 16 17 18 19 20 21 22 23 24 25 26 27 28 29 30 31 32 33 34 35 36 37 38 39 40 41 42 43 44 45 46 47 48 49 50

972
ASUS43 KDMX 242201
RWRIA

WEATHER ROUNDUP FOR IOWA
NATIONAL WEATHER SERVICE DES MOINES IA
400 PM CST FRI NOV 24 2017

NOTE: "FAIR" INDICATES FEW OR NO CLOUDS BELOW 12,000 FEET WITH NO
SIGNIFICANT WEATHER AND/OR OBSTRUCTIONS TO VISIBILITY.

* - THESE STATIONS ARE NOT NWS STATIONS...THUS NOT UNDER NWS
QUALITY CONTROL.  THEY ALSO DO NOT REPORT WEATHER SUCH
AS PRECIPITATION OR FOG.

IAZ001>003-012>014-020>022-031>034-043>046-242300-
   NORTHWEST IOWA

CITY           SKY/WX    TMP DP  RH WIND       PRES   REMARKS
CARROLL *      CLOUDY    66  37  34 NW18      29.57R
CHEROKEE *     CLOUDY    58  40  51 NW18G26   29.62R
DENISON *      MOCLDY    64  36  34 NW28G39   29.62R
LE MARS *      PTCLDY    59  39  47 NW21G32   29.64R
ORANGE CITY *  CLEAR     59  43  55 NW28G37   29.63R
SHELDON *      MOCLDY    57  41  54 NW30G40   29.60R
SIOUX CITY     PTCLDY    61  40  45 NW26G36   29.64R
SPENCER        MOCLDY    58  41  53 NW28G38   29.59R
STORM LAKE *   PTCLDY    57  41  54 NW28G35   29.60R
$$

IAZ055>058-069>071-079>083-090>094-242300-
   SOUTHWEST IOWA

CITY           SKY/WX    TMP DP  RH WIND       PRES   REMARKS
ATLANTIC *     CLEAR     66  39  37 N16G26    29.60R
AUDUBON *      CLEAR     64  37  36 NW10G18   29.60R
CLARINDA *     CLOUDY    66  41  39 N17G28      N/A
COUNCIL BLFS * CLEAR     66  39  37 NW16G24   29.63R
CRESTON *      CLOUDY    64  41  42 N22G28    29.60R
HARLAN  *      CLEAR     66  39  37 N15G22    29.64R
LAMONI         CLOUDY    66  42  41 NW20G35   29.56R
RED OAK *      CLEAR     68  39  34 N23G32    29.62R
SHENANDOAH *   CLEAR     66  41  39 N14G20    29.63R
$$

IAZ047>049-059>061-072>074-084-242300-
   CENTRAL IOWA

CITY           SKY/WX    TMP DP  RH WIND       PRES   REMARKS
AMES           CLEAR     65  42  43 NW17G24   29.54R
ANKENY *       CLEAR     64  41  42 NW13G22   29.56R
BOONE *        CLEAR     64  41  42 NW16G25   29.54R
CHARITON *     CLOUDY    66  41  39 NW17G31   29.55R
DES MOINES     PTCLDY    66  41  40 NW15G25   29.55R
GRINNELL*      CLEAR     64  41  43 NW21G29   29.53R
KNOXVILLE *    CLEAR     66  41  39 NW18G29   29.52R
MARSHALLTOWN   CLEAR     64  42  44 NW24G32   29.52R
NEWTON *       CLEAR     64  41  42 NW18G30   29.53R
PELLA *        CLEAR     65  40  39 NW14G22   29.53R
PERRY *          N/A     63  36  36 NW15G22   29.56S
$$

IAZ004>006-015-016-023>025-035-036-242300-
   NORTH CENTRAL IOWA

CITY           SKY/WX    TMP DP  RH WIND       PRES   REMARKS
ALGONA *       CLOUDY    61  39  44 NW20G31   29.53R
CLARION *      MOCLDY    63  39  42 NW16G24   29.52R
ESTHERVILLE    PTCLDY    54  42  64 NW28G48   29.56R
FORT DODGE *   MOCLDY    63  38  39 NW9       29.53S
MASON CITY     MOCLDY    60  39  45 NW17      29.49R
FOREST CITY *  CLOUDY    61  36  39 NW13G22   29.49R
WEBSTER CITY * PTCLDY    64  37  36 NW17      29.51R
IOWA FALLS *     N/A     65  41  42 NW20G25   29.52R
$$

IAZ007>011-017>019-026>030-037>042-050>054-066-242300-
   NORTHEAST IOWA

CITY           SKY/WX    TMP DP  RH WIND       PRES   REMARKS
CEDAR RAPIDS   CLEAR     66  41  40 W23G31    29.46R
CHARLES CITY * PTCLDY    61  41  48 NW14G22   29.47R
CLINTON *      CLEAR     67  42  40 SW22      29.43R
DECORAH *      CLEAR     59  41  51 N15G23    29.43R
DUBUQUE        CLEAR     64  40  41 W15       29.42R
MONTICELLO *   CLEAR     66  41  39 W15       29.44R
OELWEIN *      CLEAR     61  43  51 NW16G30   29.48R
WATERLOO       CLEAR     62  41  46 NW18G28   29.49R
$$

IAZ064-065-067-068-078-242300-
   EAST CENTRAL IOWA

CITY           SKY/WX    TMP DP  RH WIND       PRES   REMARKS
DAVENPORT      CLEAR     67  39  35 SW17      29.46R
IOWA CITY      CLEAR     69  41  36 W16       29.48R
MT. PLEASANT * CLEAR     69  37  31 SW17G23   29.49R
MUSCATINE *    CLEAR     72  39  30 W18G28    29.47R
QUAD CITIES    CLEAR     70  38  31 SW15G22   29.42R
$$

IAZ062-063-075>077-085>089-095>099-242300-
   SOUTHEAST IOWA

CITY           SKY/WX    TMP DP  RH WIND       PRES   REMARKS
BURLINGTON     CLOUDY    70  40  33 SW15      29.47R
FAIRFIELD *    PTCLDY    70  39  32 W13G18    29.49R
FORT MADISON * CLEAR     72  39  30 SW14G21   29.49R
KEOKUK *       CLEAR     72  37  28 SW18G26   29.48R
OSKALOOSA *      N/A     67  41  38 NW20      29.52R
OTTUMWA        CLEAR     69  41  36 W14       29.50R
WASHINGTON *   CLEAR     70  41  35 W15G23    29.49R
$$

ABBREVIATIONS USED IN REMARKS
   TC - TEMPERATURES IN CELSIUS
  WCI - WIND CHILL INDEX
   HX - HEAT INDEX
  VSB - VISIBILITY
$$





USA.gov is the U.S. government's official web portal to all federal, state and local government web resources and services.